STARLINK-32156, 60278

Orbit data source: Space-Track

STARLINK-32156, 60278 is a payload satellite owned by SpaceX/Seattle (US) in LEO that was launched on Sun, 28 Jul 2024 UTC via an FALCON 9 launch vehicle from the Air Force Eastern Test Range (AFETR). Payload-class satellites include a variety of spacecraft equipped with specific instruments for various scientific and technological missions. These include communications satellites like Starlink; space stations such as the ISS; scientific satellites like the Hubble; Earth observation satellites from companies like Planet Labs, Umbra, and HawkEye 360; GPS; miniature CubeSats for education and research; and military/defense satellites.

Loading next visibility...
Identifier
60278, 2024-132A
Orbit
LEO
Country
Flag of USUS
Related business
Manufacturer
SpaceX/Seattle
Mission
Operational Commercial Communications
Bus & Motor
STARLINK V2M, Unknown motor
Mass
730 kg wet, ~700 kg dry
Launch date (UTC)
2024-07-28 (1 year ago)
Launch vehicle
FALCON 9
Launch site
Air Force Eastern Test Range (AFETR)
Object type
Payload
Rocket body
Debris
Shape & HBR
Box + 2 Pan, 17.7 m
Radar Cross Section
33.884 m², Large (>1 m²)

Expand to show TLE details & history
Last TLE update: 9 hours ago

TLE from 9 hours ago
0 STARLINK-32156
1 60278U 24132A   25352.51653842 -.00000153  00000-0  69445-5 0  9999
2 60278  53.1599  69.3868 0000889  84.9117 275.1985 15.30197683 80358
Epoch: 2025-12-18T12:23Z
TLE epoch observation values (Epoch: 2025-12-18T12:23:48.919Z)
Latitude
-0.00004°
Longitude
156.06202°
Altitude
476.067 km
Speed
7.629 km/s
True Right ascension
04h 37m 32s
True Declination
0° 00' 00"
Sunlit
Object was in full shadow at epoch
Visualization orbit readout
Latitude
Unknown
Longitude
Unknown
Altitude
Unknown
Speed
Unknown
Apparent Right ascension
Unknown
Apparent Declination
Unknown
Sunlit
N/A
Visualization observer readout
Local Sidereal Time
20:20:01
Azimuth
Unknown
Elevation
Unknown
Doppler factor
Unknown
Orbital elements
Apogee altitude
476.088 km
Perigee altitude
474.869 km
Semi-major axis
6,853.615 km
Eccentricity
0.00009
Inclination
53.1599°
RAAN
69.3868°
Arg. of periapsis
84.9117°
True anomaly
275.18835°
Mean anomaly
275.1985°
Eccentric anomaly
275.19343°
Mean motion
3.82528 °/min
Orbital period
94.11 mins
BSTAR
0.0000069445
Loading maneuver chart data...
Computing Atmospheric mass density...
Loading historical data...
Loading historical data...
Loading historical data...
Loading historical data...
Loading historical data...
Loading historical data...
Loading historical data...

Documentation

Showing up to 5 results
|